| time (UTC) | temp F | wind direction | speed MPH | gust MPH | rain 1hr in | rain 24hr in | rain mn in | humidity % | barometer mb |
| 20260508232017 | 74 | 68 | 3.0 | 9.0 | 0.00 | 0.00 | 0.00 | 24 | 904.8 |
| 20260508231018 | 74 | 68 | 3.0 | 8.0 | 0.00 | 0.00 | 0.00 | 25 | 904.8 |
| 20260508230017 | 74 | 113 | 5.0 | 13.0 | 0.00 | 0.00 | 0.00 | 23 | 904.8 |
| 20260508225017 | 75 | 113 | 4.0 | 9.0 | 0.00 | 0.00 | 0.00 | 24 | 904.8 |
| 20260508224017 | 75 | 113 | 3.0 | 7.0 | 0.00 | 0.00 | 0.00 | 24 | 904.8 |
| 20260508223018 | 75 | 113 | 4.0 | 10.0 | 0.00 | 0.00 | 0.00 | 25 | 904.8 |
| 20260508222017 | 75 | 45 | 2.0 | 9.0 | 0.00 | 0.00 | 0.00 | 25 | 904.8 |
| 20260508221018 | 75 | 338 | 3.0 | 11.0 | 0.00 | 0.00 | 0.00 | 24 | 904.8 |
| 20260508220017 | 74 | 68 | 2.0 | 6.0 | 0.00 | 0.00 | 0.00 | 24 | 904.8 |
| 20260508215017 | 74 | 68 | 3.0 | 5.0 | 0.00 | 0.00 | 0.00 | 24 | 904.8 |
| 20260508214017 | 73 | 68 | 5.0 | 14.0 | 0.00 | 0.00 | 0.00 | 25 | 904.8 |
| 20260508213037 | 73 | 113 | 2.0 | 4.0 | 0.00 | 0.00 | 0.00 | 25 | 904.8 |
| 20260508212037 | 73 | 68 | 3.0 | 9.0 | 0.00 | 0.00 | 0.00 | 24 | 904.8 |
| 20260508211017 | 74 | 90 | 3.0 | 9.0 | 0.00 | 0.00 | 0.00 | 24 | 904.8 |
| 20260508210016 | 74 | 113 | 2.0 | 7.0 | 0.00 | 0.00 | 0.00 | 23 | 904.8 |
| 20260508205017 | 73 | 90 | 3.0 | 7.0 | 0.00 | 0.00 | 0.00 | 25 | 904.8 |
| 20260508204017 | 73 | 90 | 3.0 | 9.0 | 0.00 | 0.00 | 0.00 | 24 | 904.8 |
| 20260508203016 | 72 | 90 | 3.0 | 7.0 | 0.00 | 0.00 | 0.00 | 27 | 904.8 |
| 20260508202017 | 72 | 90 | 2.0 | 7.0 | 0.00 | 0.00 | 0.00 | 25 | 904.8 |
| 20260508201037 | 71 | 90 | 3.0 | 6.0 | 0.00 | 0.00 | 0.00 | 24 | 904.7 |
| 20260508200016 | 72 | 45 | 3.0 | 9.0 | 0.00 | 0.00 | 0.00 | 25 | 904.8 |
| 20260508195016 | 71 | 45 | 4.0 | 12.0 | 0.00 | 0.00 | 0.00 | 25 | 904.7 |
| 20260508194037 | 72 | 90 | 4.0 | 12.0 | 0.00 | 0.00 | 0.00 | 24 | 904.7 |
| 20260508193036 | 71 | 0 | 4.0 | 11.0 | 0.00 | 0.00 | 0.00 | 24 | 904.7 |
| 20260508192016 | 72 | 90 | 4.0 | 10.0 | 0.00 | 0.00 | 0.00 | 23 | 904.7 |
| 20260508191017 | 72 | 90 | 3.0 | 8.0 | 0.00 | 0.00 | 0.00 | 23 | 904.7 |
| 20260508190016 | 72 | 68 | 3.0 | 7.0 | 0.00 | 0.00 | 0.00 | 25 | 904.7 |
| 20260508185016 | 71 | 68 | 5.0 | 10.0 | 0.00 | 0.00 | 0.00 | 23 | 904.6 |
| 20260508184017 | 72 | 68 | 5.0 | 13.0 | 0.00 | 0.00 | 0.00 | 23 | 904.7 |
| 20260508183016 | 71 | 90 | 4.0 | 14.0 | 0.00 | 0.00 | 0.00 | 23 | 904.6 |
| 20260508182017 | 72 | 68 | 4.0 | 13.0 | 0.00 | 0.00 | 0.00 | 23 | 904.7 |
| 20260508181016 | 72 | 45 | 4.0 | 10.0 | 0.00 | 0.00 | 0.00 | 22 | 904.7 |
| 20260508180016 | 71 | 90 | 4.0 | 8.0 | 0.00 | 0.00 | 0.00 | 23 | 904.6 |
| 20260508175016 | 71 | 90 | 4.0 | 11.0 | 0.00 | 0.00 | 0.00 | 24 | 904.7 |
| 20260508174016 | 70 | 293 | 2.0 | 5.0 | 0.00 | 0.00 | 0.00 | 23 | 904.6 |
| 20260508173016 | 70 | 68 | 4.0 | 8.0 | 0.00 | 0.00 | 0.00 | 23 | 904.6 |
| 20260508172016 | 70 | 315 | 2.0 | 7.0 | 0.00 | 0.00 | 0.00 | 24 | 904.6 |
| 20260508171016 | 69 | 90 | 3.0 | 9.0 | 0.00 | 0.00 | 0.00 | 25 | 904.6 |
| 20260508170017 | 68 | 90 | 2.0 | 8.0 | 0.00 | 0.00 | 0.00 | 27 | 904.6 |
| 20260508165036 | 67 | 68 | 4.0 | 12.0 | 0.00 | 0.00 | 0.00 | 26 | 904.6 |
| 20260508164015 | 66 | 270 | 2.0 | 4.0 | 0.00 | 0.00 | 0.00 | 32 | 904.6 |
| 20260508163016 | 64 | 68 | 2.0 | 5.0 | 0.00 | 0.00 | 0.00 | 33 | 904.5 |
| 20260508162015 | 63 | 90 | 2.0 | 8.0 | 0.00 | 0.00 | 0.00 | 34 | 904.6 |
| 20260508161016 | 63 | 68 | 2.0 | 9.0 | 0.00 | 0.00 | 0.00 | 35 | 904.6 |
| 20260508160035 | 62 | 113 | 2.0 | 13.0 | 0.00 | 0.00 | 0.00 | 35 | 904.5 |
| 20260508155016 | 62 | 338 | 3.0 | 9.0 | 0.00 | 0.00 | 0.00 | 35 | 904.5 |
| 20260508154015 | 61 | 0 | 2.0 | 8.0 | 0.00 | 0.00 | 0.00 | 34 | 904.5 |
| 20260508153015 | 61 | 0 | 2.0 | 6.0 | 0.00 | 0.00 | 0.00 | 35 | 904.5 |
| 20260508152015 | 61 | 68 | 2.0 | 6.0 | 0.00 | 0.00 | 0.00 | 34 | 904.6 |
| 20260508151036 | 61 | 68 | 2.0 | 5.0 | 0.00 | 0.00 | 0.00 | 37 | 904.6 |
| 20260508150017 | 60 | 293 | 2.0 | 7.0 | 0.00 | 0.00 | 0.00 | 37 | 904.6 |
| 20260508145039 | 59 | 248 | 2.0 | 4.0 | 0.00 | 0.00 | 0.00 | 36 | 904.6 |
| 20260508144017 | 58 | 45 | 1.0 | 4.0 | 0.00 | 0.00 | 0.00 | 40 | 904.6 |
| 20260508143017 | 57 | 135 | 1.0 | 5.0 | 0.00 | 0.00 | 0.00 | 39 | 904.6 |
| 20260508142038 | 56 | 23 | 1.0 | 4.0 | 0.00 | 0.00 | 0.00 | 39 | 904.6 |
| 20260508141017 | 56 | 158 | 1.0 | 4.0 | 0.00 | 0.00 | 0.00 | 38 | 904.6 |
| 20260508140017 | 55 | 293 | 2.0 | 3.0 | 0.00 | 0.00 | 0.00 | 39 | 904.6 |
| 20260508135018 | 55 | 68 | 1.0 | 3.0 | 0.00 | 0.00 | 0.00 | 39 | 904.6 |
| 20260508134017 | 54 | 270 | 1.0 | 5.0 | 0.00 | 0.00 | 0.00 | 41 | 904.6 |
| 20260508133017 | 54 | 315 | 2.0 | 7.0 | 0.00 | 0.00 | 0.00 | 42 | |
| 20260508132017 | 52 | 248 | 1.0 | 4.0 | 0.00 | 0.00 | 0.00 | 44 | |
| 20260508131017 | 50 | 23 | 1.0 | 3.0 | 0.00 | 0.00 | 0.00 | 47 | |
| 20260508130017 | 49 | 0 | 1.0 | 3.0 | 0.00 | 0.00 | 0.00 | 49 | |
| 20260508125037 | 47 | 293 | 1.0 | 2.0 | 0.00 | 0.00 | 0.00 | 50 | |
| 20260508124017 | 46 | 180 | 1.0 | 2.0 | 0.00 | 0.00 | 0.00 | 51 | |
| 20260508123016 | 45 | 248 | 1.0 | 3.0 | 0.00 | 0.00 | 0.00 | 54 | |
| 20260508122017 | 43 | 338 | 1.0 | 3.0 | 0.00 | 0.00 | 0.00 | 56 | |
| 20260508121017 | 42 | 0.0 | 2.0 | 0.00 | 0.00 | 0.00 | 59 | ||
| 20260508120038 | 42 | 0.0 | 2.0 | 0.00 | 0.00 | 0.00 | 63 | ||
| 20260508115017 | 42 | 90 | 1.0 | 2.0 | 0.00 | 0.00 | 0.00 | 61 | |
| 20260508114016 | 42 | 0.0 | 0.0 | 0.00 | 0.00 | 0.00 | 60 | ||
| 20260508113017 | 42 | 0.0 | 0.0 | 0.00 | 0.00 | 0.00 | 59 | ||
| 20260508112536 | 42 | 0.0 | 0.0 | 0.00 | 0.00 | 0.00 | 58 | ||
| 20260508111517 | 42 | 0.0 | 1.0 | 0.00 | 0.00 | 0.00 | 57 | ||
| 20260508110516 | 42 | 0 | 1.0 | 3.0 | 0.00 | 0.00 | 0.00 | 57 | |
| 20260508105516 | 43 | 0.0 | 0.0 | 0.00 | 0.00 | 0.00 | 56 | ||
| 20260508104536 | 43 | 0.0 | 2.0 | 0.00 | 0.00 | 0.00 | 55 | ||
| 20260508103517 | 43 | 0.0 | 2.0 | 0.00 | 0.00 | 0.00 | 55 | ||
| 20260508102516 | 44 | 0.0 | 1.0 | 0.00 | 0.00 | 0.00 | 54 | ||
| 20260508101516 | 44 | 0.0 | 0.0 | 0.00 | 0.00 | 0.00 | 53 | ||
| 20260508100516 | 44 | 0.0 | 1.0 | 0.00 | 0.00 | 0.00 | 52 | ||
| 20260508095537 | 44 | 0.0 | 1.0 | 0.00 | 0.00 | 0.00 | 51 | ||
| 20260508094516 | 45 | 0.0 | 1.0 | 0.00 | 0.00 | 0.00 | 50 | ||
| 20260508093516 | 45 | 0.0 | 0.0 | 0.00 | 0.00 | 0.00 | 49 | ||
| 20260508092516 | 45 | 0.0 | 0.0 | 0.00 | 0.00 | 0.00 | 49 | ||
| 20260508091537 | 45 | 0.0 | 2.0 | 0.00 | 0.00 | 0.00 | 50 | ||
| 20260508090516 | 45 | 0.0 | 0.0 | 0.00 | 0.00 | 0.00 | 49 | ||
| 20260508085516 | 45 | 0.0 | 1.0 | 0.00 | 0.00 | 0.00 | 49 | ||
| 20260508084517 | 45 | 270 | 1.0 | 3.0 | 0.00 | 0.00 | 0.00 | 49 | |
| 20260508083515 | 45 | 23 | 1.0 | 2.0 | 0.00 | 0.00 | 0.00 | 49 | |
| 20260508082536 | 46 | 0.0 | 2.0 | 0.00 | 0.00 | 0.00 | 49 | ||
| 20260508081516 | 46 | 90 | 1.0 | 2.0 | 0.00 | 0.00 | 0.00 | 48 | |
| 20260508080536 | 46 | 0.0 | 2.0 | 0.00 | 0.00 | 0.00 | 49 | ||
| 20260508075515 | 46 | 248 | 1.0 | 3.0 | 0.00 | 0.00 | 0.00 | 48 | |
| 20260508074517 | 45 | 0.0 | 2.0 | 0.00 | 0.00 | 0.00 | 49 | ||
| 20260508073515 | 45 | 225 | 1.0 | 4.0 | 0.00 | 0.00 | 0.00 | 49 | |
| 20260508072515 | 44 | 203 | 1.0 | 3.0 | 0.00 | 0.00 | 0.00 | 51 | |
| 20260508071537 | 43 | 0.0 | 2.0 | 0.00 | 0.00 | 0.00 | 53 | ||
| 20260508070515 | 43 | 113 | 1.0 | 3.0 | 0.00 | 0.00 | 0.00 | 54 | |
| 20260508065517 | 43 | 0.0 | 2.0 | 0.00 | 0.00 | 0.00 | 56 | ||
| 20260508064517 | 42 | 0.0 | 0.0 | 0.00 | 0.00 | 0.00 | 57 | ||
| 20260508063518 | 42 | 0.0 | 0.0 | 0.00 | 0.00 | 0.00 | 59 | ||
| 20260508062517 | 42 | 0.0 | 1.0 | 0.00 | 0.00 | 0.00 | 58 | ||
| 20260508061517 | 42 | 0.0 | 0.0 | 0.00 | 0.00 | 0.00 | 60 | ||
| 20260508060538 | 42 | 0.0 | 0.0 | 0.00 | 0.00 | 0.00 | 61 | ||
| 20260508055517 | 42 | 0.0 | 0.0 | 0.00 | 0.00 | 0.00 | 60 | ||
| 20260508054517 | 42 | 0.0 | 0.0 | 0.00 | 0.00 | 0.00 | 59 | ||
| 20260508053517 | 43 | 0.0 | 0.0 | 0.00 | 0.00 | 0.00 | 58 | ||
| 20260508052538 | 43 | 0.0 | 0.0 | 0.00 | 0.00 | 0.00 | 57 | ||
| 20260508051518 | 44 | 0.0 | 0.0 | 0.00 | 0.00 | 0.00 | 56 | ||
| 20260508050517 | 44 | 0.0 | 0.0 | 0.00 | 0.00 | 0.00 | 55 | ||
| 20260508045517 | 44 | 0.0 | 0.0 | 0.00 | 0.00 | 0.00 | 55 | ||
| 20260508044516 | 45 | 0.0 | 0.0 | 0.00 | 0.00 | 0.00 | 54 | ||
| 20260508043516 | 45 | 0.0 | 0.0 | 0.00 | 0.00 | 0.00 | 53 | ||
| 20260508042516 | 46 | 0.0 | 0.0 | 0.00 | 0.00 | 0.00 | 52 | ||
| 20260508041517 | 46 | 0.0 | 0.0 | 0.00 | 0.00 | 0.00 | 50 | ||
| 20260508040516 | 47 | 0.0 | 0.0 | 0.00 | 0.00 | 0.00 | 50 | ||
| 20260508035537 | 47 | 0.0 | 0.0 | 0.00 | 0.00 | 0.00 | 48 | ||
| 20260508034516 | 48 | 0.0 | 0.0 | 0.00 | 0.00 | 0.00 | 47 | ||
| 20260508033517 | 48 | 0.0 | 0.0 | 0.00 | 0.00 | 0.00 | 46 | ||
| 20260508032516 | 49 | 0.0 | 0.0 | 0.00 | 0.00 | 0.00 | 45 | ||
| 20260508031517 | 49 | 0.0 | 1.0 | 0.00 | 0.00 | 0.00 | 44 | ||
| 20260508030516 | 50 | 0.0 | 1.0 | 0.00 | 0.00 | 0.00 | 44 | ||
| 20260508025536 | 51 | 0.0 | 0.0 | 0.00 | 0.00 | 0.00 | 42 | ||
| 20260508024516 | 52 | 0.0 | 0.0 | 0.00 | 0.00 | 0.00 | 40 | ||
| 20260508023536 | 53 | 0.0 | 1.0 | 0.00 | 0.00 | 0.00 | 39 | ||
| 20260508022516 | 53 | 0.0 | 1.0 | 0.00 | 0.00 | 0.00 | 37 | ||
| 20260508021515 | 54 | 0.0 | 1.0 | 0.00 | 0.00 | 0.00 | 37 | ||
| 20260508020516 | 55 | 0.0 | 1.0 | 0.00 | 0.00 | 0.00 | 35 | ||
| 20260508015516 | 56 | 0.0 | 1.0 | 0.00 | 0.00 | 0.00 | 35 | ||
| 20260508014515 | 56 | 0.0 | 1.0 | 0.00 | 0.00 | 0.00 | 34 | ||
| 20260508013556 | 57 | 0.0 | 0.0 | 0.00 | 0.00 | 0.00 | 32 | ||
| 20260508012516 | 57 | 0.0 | 1.0 | 0.00 | 0.00 | 0.00 | 31 | ||
| 20260508011515 | 58 | 0.0 | 0.0 | 0.00 | 0.00 | 0.00 | 31 | ||
| 20260508010515 | 58 | 0.0 | 1.0 | 0.00 | 0.00 | 0.00 | 30 | ||
| 20260508005516 | 59 | 0.0 | 1.0 | 0.00 | 0.00 | 0.00 | 29 | ||
| 20260508004517 | 59 | 113 | 1.0 | 6.0 | 0.00 | 0.00 | 0.00 | 28 | |
| 20260508003517 | 59 | 0.0 | 3.0 | 0.00 | 0.00 | 0.00 | 28 | ||
| 20260508002518 | 59 | 113 | 2.0 | 4.0 | 0.00 | 0.00 | 0.00 | 28 | |
| 20260508001517 | 60 | 90 | 2.0 | 5.0 | 0.00 | 0.00 | 0.00 | 27 | |
| 20260508000517 | 60 | 68 | 3.0 | 9.0 | 0.00 | 0.00 | 0.00 | 28 | |
| 20260507235518 | 60 | 158 | 2.0 | 6.0 | 0.00 | 0.00 | 0.00 | 26 | |
| 20260507234517 | 61 | 338 | 2.0 | 5.0 | 0.00 | 0.00 | 0.00 | 24 | |
| 20260507233537 | 61 | 135 | 3.0 | 6.0 | 0.00 | 0.00 | 0.00 | 25 |